{"data":{"norad_id":58358,"intl_designator":"2023-177H","name":"STARLINK-30858","alt_names":[],"object_type":"PAYLOAD","status":"ACTIVE","operator":null,"country":"US","launch_date":"2023-11-18","launch_site_code":"AFETR","launch_vehicle":null,"mission":null,"orbit_class":"UNKNOWN","rcs_meters":null,"size_class":null,"mass_kg":null,"dimensions":null,"purposes":["comms"],"wikipedia_slug":null,"has_3d_model":false,"image_url":null,"decayed_at":null,"tle_current":{"epoch":"2026-05-24T18:03:40.103136Z","epoch_age_seconds":96537,"freshness":"FRESH","line1":"1 58358U 23177H   26144.75254749  .00000142  00000+0  14685-4 0  9993","line2":"2 58358  43.0010 280.7567 0001122 267.3185  92.7538 15.27580426139874","mean_motion":15.27580426,"eccentricity":0.0001122,"inclination_deg":43.001,"raan_deg":280.7567,"arg_perigee_deg":267.3185,"mean_anomaly_deg":92.7538,"bstar":1.4685e-5,"rev_number":13987,"period_min":94.266722425258,"perigee_km":482.27799550584,"apogee_km":483.81764537955,"semimajor_km":6861.1848204427,"source":"CELESTRAK","updated_at":"2026-05-25T13:38:18.585568Z"}}}